TimeCST,TemperatureF,Dew PointF,Humidity,Sea Level PressureIn,VisibilityMPH,Wind Direction,Wind SpeedMPH,Gust SpeedMPH,PrecipitationIn,Events,Conditions,WindDirDegrees,DateUTC
12:15 AM,35.6,32.0,87,29.39,10.0,SSW,19.6,23.0,N/A,,Overcast,200,2013-02-11 06:15:00
12:35 AM,35.6,32.0,87,29.39,10.0,SSW,20.7,27.6,N/A,,Overcast,210,2013-02-11 06:35:00
12:55 AM,35.6,32.0,87,29.39,10.0,SSW,17.3,29.9,N/A,Rain,Rain,200,2013-02-11 06:55:00
1:15 AM,35.6,32.0,87,29.39,10.0,SSW,18.4,23.0,N/A,,Drizzle,200,2013-02-11 07:15:00
1:35 AM,35.6,32.0,87,29.39,10.0,South,16.1,25.3,N/A,Rain,Light Rain,190,2013-02-11 07:35:00
1:55 AM,33.8,32.0,93,29.39,10.0,SSW,19.6,-,N/A,Snow,Light Snow,200,2013-02-11 07:55:00
2:15 AM,33.8,30.2,87,29.39,10.0,SSW,29.9,35.7,N/A,,Light Drizzle,210,2013-02-11 08:15:00
2:35 AM,33.8,30.2,87,29.39,10.0,SSW,28.8,38.0,N/A,,Overcast,210,2013-02-11 08:35:00
2:55 AM,33.8,30.2,87,29.39,10.0,SW,23.0,33.4,N/A,,Overcast,220,2013-02-11 08:55:00
3:15 AM,33.8,28.4,81,29.40,10.0,SW,25.3,39.1,N/A,,Overcast,220,2013-02-11 09:15:00
3:35 AM,33.8,28.4,81,29.40,10.0,SW,31.1,41.4,N/A,,Overcast,220,2013-02-11 09:35:00
3:55 AM,32.0,28.4,87,29.40,10.0,SW,29.9,34.5,N/A,,Overcast,220,2013-02-11 09:55:00
4:15 AM,32.0,28.4,87,29.40,10.0,SSW,26.5,36.8,N/A,,Overcast,210,2013-02-11 10:15:00
4:35 AM,32.0,26.6,80,29.40,10.0,SSW,26.5,33.4,N/A,,Overcast,210,2013-02-11 10:35:00
4:55 AM,32.0,26.6,80,29.41,10.0,SW,24.2,32.2,N/A,,Overcast,220,2013-02-11 10:55:00
5:15 AM,32.0,28.4,87,29.41,10.0,SW,21.9,35.7,N/A,,Overcast,220,2013-02-11 11:15:00
5:55 AM,32.0,28.4,87,29.43,10.0,SW,21.9,26.5,N/A,,Overcast,220,2013-02-11 11:55:00
6:15 AM,32.0,26.6,80,29.43,10.0,SW,20.7,31.1,N/A,,Overcast,220,2013-02-11 12:15:00
6:35 AM,32.0,26.6,80,29.45,10.0,SW,26.5,32.2,N/A,,Overcast,220,2013-02-11 12:35:00
6:55 AM,32.0,26.6,80,29.45,10.0,SW,23.0,32.2,N/A,,Overcast,220,2013-02-11 12:55:00
7:15 AM,32.0,26.6,80,29.46,10.0,SW,25.3,32.2,N/A,,Overcast,220,2013-02-11 13:15:00
7:35 AM,32.0,26.6,80,29.47,10.0,SW,23.0,28.8,N/A,,Overcast,220,2013-02-11 13:35:00
7:55 AM,32.0,26.6,80,29.48,10.0,SW,23.0,29.9,N/A,,Overcast,230,2013-02-11 13:55:00
8:15 AM,32.0,28.4,87,29.49,10.0,SW,21.9,29.9,N/A,,Overcast,230,2013-02-11 14:15:00
8:35 AM,32.0,28.4,87,29.50,10.0,SW,20.7,31.1,N/A,,Overcast,230,2013-02-11 14:35:00
8:55 AM,32.0,28.4,87,29.52,10.0,SW,21.9,29.9,N/A,,Overcast,230,2013-02-11 14:55:00
9:15 AM,32.0,28.4,87,29.53,10.0,SW,23.0,28.8,N/A,,Overcast,230,2013-02-11 15:15:00
9:35 AM,32.0,28.4,87,29.54,10.0,WSW,24.2,28.8,N/A,,Overcast,240,2013-02-11 15:35:00
9:55 AM,32.0,28.4,87,29.55,10.0,WSW,23.0,-,N/A,,Overcast,240,2013-02-11 15:55:00
10:15 AM,32.0,28.4,87,29.56,10.0,WSW,20.7,29.9,N/A,,Overcast,240,2013-02-11 16:15:00
10:35 AM,32.0,28.4,87,29.57,10.0,WSW,24.2,28.8,N/A,,Overcast,250,2013-02-11 16:35:00
10:55 AM,32.0,28.4,87,29.59,10.0,WSW,23.0,33.4,N/A,,Overcast,250,2013-02-11 16:55:00
11:15 AM,32.0,28.4,87,29.60,10.0,West,19.6,26.5,N/A,,Overcast,260,2013-02-11 17:15:00
11:35 AM,32.0,28.4,87,29.60,10.0,WSW,19.6,27.6,N/A,,Overcast,250,2013-02-11 17:35:00
11:55 AM,32.0,28.4,87,29.62,10.0,West,17.3,27.6,N/A,,Overcast,260,2013-02-11 17:55:00
12:15 PM,32.0,28.4,87,29.63,10.0,West,21.9,28.8,N/A,,Overcast,260,2013-02-11 18:15:00
12:35 PM,32.0,26.6,80,29.64,10.0,West,19.6,27.6,N/A,,Overcast,260,2013-02-11 18:35:00
12:55 PM,32.0,26.6,80,29.66,10.0,WSW,26.5,33.4,N/A,,Overcast,240,2013-02-11 18:55:00
1:15 PM,32.0,26.6,80,29.67,10.0,WSW,27.6,36.8,N/A,,Overcast,250,2013-02-11 19:15:00
1:35 PM,32.0,24.8,75,29.67,10.0,WSW,20.7,32.2,N/A,,Overcast,250,2013-02-11 19:35:00
1:55 PM,30.2,23.0,75,29.69,10.0,WSW,26.5,34.5,N/A,,Overcast,250,2013-02-11 19:55:00
2:15 PM,30.2,23.0,75,29.70,10.0,WSW,17.3,29.9,N/A,,Overcast,250,2013-02-11 20:15:00
2:35 PM,30.2,23.0,75,29.71,10.0,West,16.1,25.3,N/A,Snow,Light Snow,260,2013-02-11 20:35:00
2:55 PM,30.2,21.2,69,29.72,10.0,West,17.3,31.1,N/A,,Overcast,260,2013-02-11 20:55:00
3:15 PM,30.2,21.2,69,29.74,10.0,West,17.3,28.8,N/A,,Overcast,260,2013-02-11 21:15:00
3:35 PM,30.2,21.2,69,29.75,10.0,West,19.6,28.8,N/A,,Overcast,260,2013-02-11 21:35:00
3:55 PM,30.2,21.2,69,29.77,10.0,West,17.3,29.9,N/A,,Overcast,260,2013-02-11 21:55:00
4:55 PM,28.4,19.4,69,29.81,10.0,West,13.8,25.3,N/A,,Overcast,260,2013-02-11 22:55:00
5:15 PM,28.4,19.4,69,29.82,10.0,West,16.1,25.3,N/A,,Overcast,260,2013-02-11 23:15:00
5:35 PM,28.4,19.4,69,29.83,10.0,West,16.1,26.5,N/A,,Overcast,260,2013-02-11 23:35:00
5:55 PM,28.4,19.4,69,29.85,10.0,West,16.1,28.8,N/A,,Overcast,270,2013-02-11 23:55:00
6:15 PM,28.4,19.4,69,29.86,10.0,West,16.1,27.6,N/A,,Overcast,260,2013-02-12 00:15:00
6:35 PM,28.4,19.4,69,29.87,10.0,West,13.8,20.7,N/A,,Overcast,270,2013-02-12 00:35:00
6:55 PM,28.4,19.4,69,29.87,10.0,WSW,13.8,18.4,N/A,,Overcast,250,2013-02-12 00:55:00
7:15 PM,28.4,21.2,74,29.89,10.0,West,12.7,19.6,N/A,,Overcast,260,2013-02-12 01:15:00
7:35 PM,28.4,19.4,69,29.89,10.0,West,15.0,20.7,N/A,,Overcast,260,2013-02-12 01:35:00
7:55 PM,28.4,19.4,69,29.90,10.0,West,16.1,24.2,N/A,,Overcast,260,2013-02-12 01:55:00
8:15 PM,28.4,19.4,69,29.90,10.0,West,13.8,21.9,N/A,,Overcast,270,2013-02-12 02:15:00
8:35 PM,28.4,19.4,69,29.91,10.0,West,15.0,21.9,N/A,,Overcast,260,2013-02-12 02:35:00
8:55 PM,28.4,19.4,69,29.92,10.0,West,11.5,20.7,N/A,,Overcast,260,2013-02-12 02:55:00
9:15 PM,28.4,19.4,69,29.92,10.0,West,12.7,18.4,N/A,,Overcast,260,2013-02-12 03:15:00
9:35 PM,28.4,19.4,69,29.93,10.0,West,9.2,-,N/A,,Overcast,260,2013-02-12 03:35:00
9:55 PM,28.4,19.4,69,29.93,10.0,West,10.4,18.4,N/A,,Overcast,270,2013-02-12 03:55:00
10:15 PM,28.4,19.4,69,29.94,10.0,West,10.4,16.1,N/A,,Overcast,260,2013-02-12 04:15:00
10:35 PM,28.4,19.4,69,29.94,10.0,West,10.4,-,N/A,,Overcast,280,2013-02-12 04:35:00
10:55 PM,28.4,17.6,64,29.95,10.0,West,8.1,17.3,N/A,,Overcast,280,2013-02-12 04:55:00
11:15 PM,26.6,19.4,74,29.95,10.0,WSW,11.5,18.4,N/A,,Overcast,250,2013-02-12 05:15:00
11:35 PM,26.6,19.4,74,29.95,10.0,West,12.7,19.6,N/A,,Overcast,260,2013-02-12 05:35:00
11:55 PM,26.6,19.4,74,29.96,10.0,West,10.4,17.3,N/A,,Overcast,270,2013-02-12 05:55:00